Location: Newark
(48.1500°N, 13.1167°E)
Time: 07:51:39
(UTC+00:00)

KAITUO 1B - Pass Details

Date: 01 December 2021
Orbit: 486 x 507 km, 97.4° (Epoch: 18 January)

Event Time Altitude Azimuth Distance (km) Brightness Sun altitude
Rises 16:27:36 0° 158° (SSE) 2,592 ? -11.5°
Reaches altitude 10° 16:29:41 10° 156° (SSE) 1,716 ? -11.8°
Maximum altitude 16:33:20 65° 74° (ENE) 565 ? -12.4°
Drops below altitude 10° 16:37:04 10° 353° (N) 1,741 ? -13.0°
Sets 16:39:11 0° 350° (N) 2,634 ? -13.3°
